| time (UTC) | temp F | wind direction | speed MPH | gust MPH | rain 1hr in | rain 24hr in | rain mn in | humidity % | barometer mb |
| 20260906103205 | 76 | 321 | 2.0 | 3.0 | 0.00 | 1.34 | 0.00 | 100 | 1010.9 |
| 20260906101204 | 76 | 295 | 0.0 | 3.0 | 0.00 | 1.34 | 0.00 | 100 | 1010.9 |
| 20260906100703 | 76 | 295 | 2.0 | 3.0 | 0.00 | 1.34 | 0.00 | 100 | 1010.9 |
| 20260906100203 | 76 | 300 | 1.0 | 3.0 | 0.00 | 1.34 | 0.00 | 100 | 1010.9 |
| 20260906094704 | 76 | 262 | 1.0 | 2.0 | 0.00 | 1.34 | 0.00 | 100 | 1010.9 |
| 20260906093704 | 76 | 237 | 0.0 | 0.0 | 0.00 | 1.34 | 0.00 | 100 | 1010.9 |
| 20260906091203 | 76 | 238 | 0.0 | 2.0 | 0.00 | 1.34 | 0.00 | 100 | 1010.9 |
| 20260906090204 | 76 | 249 | 1.0 | 5.0 | 0.00 | 1.34 | 0.00 | 100 | 1010.9 |
| 20260906084704 | 76 | 236 | 3.0 | 6.0 | 0.00 | 1.34 | 0.00 | 100 | 1010.9 |
| 20260906084204 | 76 | 237 | 3.0 | 6.0 | 0.00 | 1.34 | 0.00 | 100 | 1010.9 |
| 20260906083204 | 76 | 235 | 3.0 | 6.0 | 0.00 | 1.34 | 0.00 | 100 | 1010.9 |
| 20260906081704 | 77 | 231 | 3.0 | 3.0 | 0.00 | 1.34 | 0.00 | 100 | 1010.9 |
| 20260906081203 | 77 | 227 | 2.0 | 3.0 | 0.00 | 1.34 | 0.00 | 100 | 1010.9 |
| 20260906080204 | 77 | 233 | 0.0 | 3.0 | 0.00 | 1.34 | 0.00 | 100 | 1010.9 |
| 20260906074704 | 77 | 253 | 2.0 | 3.0 | 0.00 | 1.34 | 0.00 | 100 | 1010.9 |
| 20260906074204 | 77 | 256 | 2.0 | 3.0 | 0.00 | 1.34 | 0.00 | 100 | 1010.9 |
| 20260906073704 | 77 | 244 | 3.0 | 6.0 | 0.00 | 1.34 | 0.00 | 100 | 1010.9 |
| 20260906073204 | 77 | 242 | 3.0 | 5.0 | 0.00 | 1.34 | 0.00 | 100 | 1010.9 |
| 20260906071704 | 77 | 245 | 0.0 | 3.0 | 0.00 | 1.34 | 0.00 | 100 | 1010.9 |
| 20260906071204 | 77 | 268 | 3.0 | 5.0 | 0.00 | 1.34 | 0.00 | 100 | 1010.9 |
| 20260906070704 | 77 | 251 | 4.0 | 6.0 | 0.00 | 1.34 | 0.00 | 100 | 1010.9 |
| 20260906070203 | 77 | 243 | 0.0 | 6.0 | 0.00 | 1.34 | 0.00 | 100 | 1010.9 |
| 20260906064704 | 77 | 244 | 3.0 | 5.0 | 0.00 | 1.34 | 0.00 | 100 | 1010.9 |
| 20260906064203 | 77 | 226 | 3.0 | 6.0 | 0.00 | 1.34 | 0.00 | 100 | 1010.9 |
| 20260906063705 | 77 | 233 | 4.0 | 6.0 | 0.00 | 1.34 | 0.00 | 100 | 1010.9 |
| 20260906063203 | 77 | 211 | 3.0 | 6.0 | 0.00 | 1.34 | 0.00 | 100 | 1011.9 |
| 20260906061704 | 77 | 208 | 0.0 | 0.0 | 0.00 | 1.34 | 0.00 | 100 | 1011.9 |
| 20260906060703 | 77 | 208 | 0.0 | 0.0 | 0.00 | 1.34 | 0.00 | 100 | 1011.9 |
| 20260906060203 | 77 | 208 | 0.0 | 3.0 | 0.00 | 1.34 | 0.00 | 100 | 1011.9 |
| 20260906054703 | 77 | 266 | 1.0 | 3.0 | 0.00 | 1.34 | 0.00 | 100 | 1012.9 |
| 20260906054205 | 77 | 230 | 0.0 | 3.0 | 0.00 | 1.34 | 0.00 | 100 | 1012.9 |
| 20260906053704 | 77 | 181 | 3.0 | 3.0 | 0.00 | 1.34 | 0.00 | 100 | 1012.9 |
| 20260906051704 | 77 | 199 | 0.0 | 0.0 | 0.00 | 1.34 | 0.00 | 100 | 1012.9 |
| 20260906051203 | 77 | 194 | 0.0 | 0.0 | 0.00 | 1.34 | 0.00 | 100 | 1012.9 |
| 20260906050704 | 77 | 178 | 0.0 | 0.0 | 0.00 | 1.34 | 0.00 | 100 | 1012.9 |
| 20260906050204 | 77 | 166 | 0.0 | 0.0 | 0.00 | 1.34 | 0.00 | 100 | 1012.9 |
| 20260906044704 | 77 | 108 | 0.0 | 0.0 | 0.00 | 1.34 | 0.00 | 100 | 1012.9 |
| 20260906044204 | 77 | 108 | 0.0 | 0.0 | 0.00 | 1.34 | 0.00 | 100 | 1012.9 |
| 20260906043704 | 77 | 108 | 0.0 | 0.0 | 0.00 | 1.34 | 0.00 | 100 | 1012.9 |
| 20260906043203 | 78 | 130 | 0.0 | 3.0 | 0.00 | 1.34 | 0.00 | 100 | 1012.9 |
| 20260906041703 | 78 | 190 | 0.0 | 3.0 | 0.00 | 1.34 | 0.00 | 100 | 1012.9 |
| 20260906040704 | 78 | 209 | 0.0 | 0.0 | 0.00 | 1.34 | 0.00 | 100 | 1012.9 |
| 20260906034704 | 78 | 219 | 0.0 | 0.0 | 0.00 | 1.34 | 1.34 | 100 | 1012.9 |
| 20260906034204 | 78 | 275 | 0.0 | 0.0 | 0.00 | 1.34 | 1.34 | 100 | 1012.9 |
| 20260906033703 | 78 | 206 | 0.0 | 0.0 | 0.00 | 1.34 | 1.34 | 100 | 1012.9 |
| 20260906033203 | 78 | 206 | 0.0 | 3.0 | 0.00 | 1.34 | 1.34 | 100 | 1012.9 |
| 20260906031704 | 78 | 227 | 2.0 | 6.0 | 0.00 | 1.34 | 1.34 | 100 | 1012.9 |
| 20260906031203 | 78 | 249 | 3.0 | 5.0 | 0.00 | 1.34 | 1.34 | 100 | 1012.9 |
| 20260906030704 | 78 | 259 | 0.0 | 5.0 | 0.00 | 1.34 | 1.34 | 100 | 1012.9 |
| 20260906030203 | 78 | 277 | 0.0 | 6.0 | 0.00 | 1.34 | 1.34 | 100 | 1012.9 |
| 20260906024204 | 77 | 250 | 3.0 | 5.0 | 0.00 | 1.34 | 1.34 | 100 | 1012.9 |
| 20260906023704 | 77 | 203 | 3.0 | 6.0 | 0.00 | 1.34 | 1.34 | 100 | 1012.9 |
| 20260906023204 | 77 | 164 | 3.0 | 6.0 | 0.00 | 1.34 | 1.34 | 100 | 1012.9 |
| 20260906021704 | 77 | 305 | 0.0 | 3.0 | 0.00 | 1.34 | 1.34 | 100 | 1012.9 |
| 20260906021203 | 77 | 295 | 3.0 | 6.0 | 0.00 | 1.34 | 1.34 | 100 | 1012.9 |
| 20260906020704 | 77 | 273 | 5.0 | 8.0 | 0.00 | 1.34 | 1.34 | 100 | 1012.9 |
| 20260906020203 | 77 | 267 | 5.0 | 9.0 | 0.00 | 1.34 | 1.34 | 100 | 1011.9 |
| 20260906014704 | 77 | 244 | 7.0 | 10.0 | 0.00 | 1.34 | 1.34 | 100 | 1012.9 |
| 20260906014204 | 77 | 231 | 7.0 | 9.0 | 0.00 | 1.34 | 1.34 | 100 | 1012.9 |
| 20260906013704 | 77 | 226 | 6.0 | 9.0 | 0.00 | 1.34 | 1.34 | 100 | 1012.9 |
| 20260906013205 | 77 | 224 | 8.0 | 10.0 | 0.00 | 1.34 | 1.34 | 100 | 1012.9 |
| 20260906011704 | 76 | 295 | 2.0 | 3.0 | 0.00 | 1.34 | 1.34 | 100 | 1013.9 |
| 20260906010704 | 76 | 5 | 2.0 | 6.0 | 0.00 | 1.34 | 1.34 | 100 | 1013.9 |
| 20260906010204 | 76 | 353 | 5.0 | 8.0 | 0.04 | 1.34 | 1.34 | 100 | 1013.9 |
| 20260906004204 | 77 | 4 | 2.0 | 6.0 | 0.31 | 1.34 | 1.34 | 100 | 1013.9 |
| 20260906003704 | 78 | 21 | 3.0 | 6.0 | 0.47 | 1.34 | 1.34 | 100 | 1013.9 |
| 20260906003204 | 78 | 354 | 6.0 | 10.0 | 0.63 | 1.34 | 1.34 | 100 | 1013.9 |
| 20260906001704 | 79 | 4 | 3.0 | 6.0 | 1.26 | 1.34 | 1.34 | 100 | 1013.9 |
| 20260906001204 | 79 | 319 | 0.0 | 3.0 | 1.34 | 1.34 | 1.34 | 100 | 1013.9 |
| 20260906000205 | 79 | 289 | 6.0 | 17.0 | 1.30 | 1.30 | 1.30 | 100 | 1013.9 |
| 20260905234204 | 80 | 231 | 10.0 | 17.0 | 1.02 | 1.02 | 1.02 | 100 | 1013.9 |
| 20260905233704 | 80 | 209 | 9.0 | 20.0 | 0.87 | 0.87 | 0.87 | 98 | 1013.9 |
| 20260905233204 | 81 | 233 | 17.0 | 26.0 | 0.71 | 0.71 | 0.71 | 96 | 1012.9 |
| 20260905231704 | 87 | 239 | 16.0 | 29.0 | 0.08 | 0.08 | 0.08 | 86 | 1011.9 |
| 20260905231204 | 87 | 227 | 12.0 | 18.0 | 0.00 | 0.00 | 0.00 | 84 | 1011.9 |
| 20260905224703 | 88 | 187 | 5.0 | 8.0 | 0.00 | 0.00 | 0.00 | 79 | 1011.9 |
| 20260905224204 | 88 | 202 | 3.0 | 8.0 | 0.00 | 0.00 | 0.00 | 79 | 1011.9 |
| 20260905223703 | 88 | 120 | 5.0 | 9.0 | 0.00 | 0.00 | 0.00 | 80 | 1011.9 |
| 20260905223203 | 88 | 138 | 3.0 | 8.0 | 0.00 | 0.00 | 0.00 | 80 | 1011.9 |
| 20260905221704 | 89 | 114 | 7.0 | 12.0 | 0.00 | 0.00 | 0.00 | 78 | 1011.9 |
| 20260905220704 | 89 | 132 | 6.0 | 8.0 | 0.00 | 0.00 | 0.00 | 74 | 1011.9 |
| 20260905220203 | 89 | 135 | 7.0 | 10.0 | 0.00 | 0.00 | 0.00 | 73 | 1010.9 |
| 20260905214703 | 90 | 123 | 6.0 | 10.0 | 0.00 | 0.00 | 0.00 | 72 | 1010.9 |
| 20260905214204 | 90 | 114 | 6.0 | 10.0 | 0.00 | 0.00 | 0.00 | 71 | 1010.9 |
| 20260905213704 | 91 | 99 | 6.0 | 9.0 | 0.00 | 0.00 | 0.00 | 72 | 1010.9 |
| 20260905213204 | 91 | 148 | 5.0 | 9.0 | 0.00 | 0.00 | 0.00 | 70 | 1011.9 |
| 20260905211203 | 90 | 122 | 7.0 | 9.0 | 0.00 | 0.00 | 0.00 | 68 | 1010.9 |
| 20260905210703 | 90 | 106 | 8.0 | 9.0 | 0.00 | 0.00 | 0.00 | 69 | 1010.9 |
| 20260905210204 | 91 | 139 | 7.0 | 13.0 | 0.00 | 0.00 | 0.00 | 68 | 1010.9 |
| 20260905204704 | 91 | 160 | 4.0 | 8.0 | 0.00 | 0.00 | 0.00 | 73 | 1010.9 |
| 20260905204204 | 91 | 117 | 7.0 | 9.0 | 0.00 | 0.00 | 0.00 | 73 | 1010.9 |
| 20260905203703 | 91 | 132 | 7.0 | 9.0 | 0.00 | 0.00 | 0.00 | 73 | 1010.9 |
| 20260905203203 | 91 | 111 | 7.0 | 9.0 | 0.00 | 0.00 | 0.00 | 73 | 1010.9 |
| 20260905201703 | 91 | 127 | 6.0 | 9.0 | 0.00 | 0.00 | 0.00 | 74 | 1010.9 |
| 20260905201203 | 91 | 172 | 6.0 | 8.0 | 0.00 | 0.00 | 0.00 | 75 | 1010.9 |
| 20260905194703 | 91 | 145 | 6.0 | 9.0 | 0.00 | 0.00 | 0.00 | 78 | 1011.9 |
| 20260905194203 | 91 | 144 | 7.0 | 10.0 | 0.00 | 0.00 | 0.00 | 78 | 1011.9 |
| 20260905193703 | 91 | 121 | 7.0 | 10.0 | 0.00 | 0.00 | 0.00 | 78 | 1011.9 |
| 20260905193203 | 91 | 148 | 7.0 | 15.0 | 0.00 | 0.00 | 0.00 | 79 | 1011.9 |
| 20260905191704 | 93 | 124 | 7.0 | 12.0 | 0.00 | 0.00 | 0.00 | 77 | 1011.9 |
| 20260905191204 | 93 | 168 | 7.0 | 9.0 | 0.00 | 0.00 | 0.00 | 77 | 1011.9 |
| 20260905190704 | 93 | 129 | 5.0 | 7.0 | 0.00 | 0.00 | 0.00 | 72 | 1011.9 |
| 20260905190204 | 93 | 306 | 2.0 | 10.0 | 0.00 | 0.00 | 0.00 | 64 | 1011.9 |
| 20260905184704 | 93 | 277 | 4.0 | 9.0 | 0.00 | 0.00 | 0.00 | 66 | 1011.9 |
| 20260905184204 | 93 | 294 | 6.0 | 9.0 | 0.00 | 0.00 | 0.00 | 69 | 1011.9 |
| 20260905183203 | 92 | 324 | 6.0 | 10.0 | 0.00 | 0.00 | 0.00 | 66 | 1011.9 |
| 20260905181703 | 91 | 250 | 6.0 | 10.0 | 0.00 | 0.00 | 0.00 | 70 | 1012.9 |
| 20260905181204 | 91 | 242 | 5.0 | 9.0 | 0.00 | 0.00 | 0.00 | 69 | 1012.9 |
| 20260905180703 | 92 | 279 | 5.0 | 10.0 | 0.00 | 0.00 | 0.00 | 69 | 1012.9 |
| 20260905180204 | 92 | 273 | 6.0 | 10.0 | 0.00 | 0.00 | 0.00 | 69 | 1012.9 |
| 20260905174704 | 92 | 255 | 6.0 | 8.0 | 0.00 | 0.00 | 0.00 | 70 | 1012.9 |
| 20260905174205 | 92 | 246 | 6.0 | 9.0 | 0.00 | 0.00 | 0.00 | 69 | 1012.9 |
| 20260905173704 | 92 | 289 | 7.0 | 10.0 | 0.00 | 0.00 | 0.00 | 69 | 1012.9 |
| 20260905173204 | 92 | 279 | 7.0 | 13.0 | 0.00 | 0.00 | 0.00 | 69 | 1012.9 |
| 20260905171704 | 92 | 250 | 4.0 | 8.0 | 0.00 | 0.00 | 0.00 | 70 | 1012.9 |
| 20260905171204 | 92 | 288 | 8.0 | 13.0 | 0.00 | 0.00 | 0.00 | 71 | 1012.9 |
| 20260905170703 | 92 | 265 | 6.0 | 10.0 | 0.00 | 0.00 | 0.00 | 73 | 1012.9 |
| 20260905170204 | 92 | 241 | 8.0 | 12.0 | 0.00 | 0.04 | 0.00 | 76 | 1012.9 |
| 20260905164704 | 91 | 251 | 7.0 | 9.0 | 0.00 | 0.08 | 0.00 | 74 | 1012.9 |
| 20260905163703 | 91 | 283 | 7.0 | 12.0 | 0.00 | 0.08 | 0.00 | 75 | 1012.9 |
| 20260905163204 | 91 | 247 | 7.0 | 12.0 | 0.00 | 0.08 | 0.00 | 76 | 1013.9 |
| 20260905161704 | 90 | 270 | 6.0 | 8.0 | 0.00 | 0.08 | 0.00 | 78 | 1013.9 |
| 20260905160703 | 90 | 278 | 4.0 | 10.0 | 0.00 | 0.08 | 0.00 | 80 | 1013.9 |
| 20260905160204 | 89 | 255 | 7.0 | 10.0 | 0.00 | 0.08 | 0.00 | 79 | 1013.9 |
| 20260905154703 | 90 | 286 | 6.0 | 10.0 | 0.00 | 0.08 | 0.00 | 78 | 1013.9 |
| 20260905154204 | 90 | 265 | 6.0 | 9.0 | 0.00 | 0.08 | 0.00 | 79 | 1013.9 |
| 20260905153703 | 90 | 273 | 7.0 | 9.0 | 0.00 | 0.08 | 0.00 | 81 | 1013.9 |
| 20260905153204 | 90 | 250 | 7.0 | 13.0 | 0.00 | 0.08 | 0.00 | 80 | 1013.9 |
| 20260905151704 | 89 | 229 | 6.0 | 9.0 | 0.00 | 0.08 | 0.00 | 86 | 1013.9 |
| 20260905150704 | 89 | 226 | 6.0 | 8.0 | 0.00 | 0.08 | 0.00 | 85 | 1013.9 |
| 20260905150204 | 89 | 180 | 6.0 | 8.0 | 0.00 | 0.08 | 0.00 | 86 | 1013.9 |
| 20260905144704 | 88 | 228 | 6.0 | 8.0 | 0.00 | 0.08 | 0.00 | 90 | 1013.9 |
| 20260905144205 | 88 | 210 | 5.0 | 8.0 | 0.00 | 0.08 | 0.00 | 90 | 1013.9 |
| 20260905143704 | 88 | 223 | 6.0 | 8.0 | 0.00 | 0.08 | 0.00 | 91 | 1013.9 |
| 20260905143203 | 87 | 221 | 6.0 | 8.0 | 0.00 | 0.08 | 0.00 | 92 | 1013.9 |
| 20260905141704 | 87 | 192 | 5.0 | 6.0 | 0.00 | 0.08 | 0.00 | 95 | 1013.9 |
| 20260905141205 | 87 | 211 | 6.0 | 8.0 | 0.00 | 0.08 | 0.00 | 95 | 1013.9 |
| 20260905140704 | 86 | 170 | 3.0 | 7.0 | 0.00 | 0.08 | 0.00 | 96 | 1013.9 |
| 20260905140205 | 86 | 244 | 5.0 | 10.0 | 0.00 | 0.08 | 0.00 | 98 | 1013.9 |
| 20260905134703 | 85 | 236 | 5.0 | 8.0 | 0.00 | 0.08 | 0.00 | 99 | 1013.9 |
| 20260905134204 | 85 | 242 | 5.0 | 8.0 | 0.00 | 0.08 | 0.00 | 100 | 1013.9 |
| 20260905133704 | 85 | 212 | 5.0 | 8.0 | 0.00 | 0.08 | 0.00 | 100 | 1013.9 |
| 20260905131704 | 83 | 235 | 5.0 | 6.0 | 0.00 | 0.08 | 0.00 | 100 | 1013.9 |
| 20260905131204 | 83 | 255 | 2.0 | 6.0 | 0.00 | 0.08 | 0.00 | 100 | 1013.9 |
| 20260905130704 | 83 | 230 | 3.0 | 7.0 | 0.00 | 0.08 | 0.00 | 100 | 1013.9 |
| 20260905130204 | 82 | 226 | 5.0 | 6.0 | 0.00 | 0.08 | 0.00 | 100 | 1013.9 |
| 20260905124704 | 81 | 227 | 4.0 | 6.0 | 0.00 | 0.08 | 0.00 | 100 | 1013.9 |
| 20260905124204 | 81 | 237 | 3.0 | 6.0 | 0.00 | 0.08 | 0.00 | 100 | 1013.9 |
| 20260905123703 | 81 | 229 | 1.0 | 3.0 | 0.00 | 0.08 | 0.00 | 100 | 1013.9 |
| 20260905123203 | 80 | 245 | 0.0 | 3.0 | 0.00 | 0.08 | 0.00 | 100 | 1013.9 |
| 20260905121704 | 79 | 247 | 0.0 | 0.0 | 0.00 | 0.08 | 0.00 | 100 | 1013.9 |
| 20260905121204 | 79 | 247 | 0.0 | 0.0 | 0.00 | 0.08 | 0.00 | 100 | 1013.9 |
| 20260905120203 | 78 | 297 | 0.0 | 0.0 | 0.00 | 0.08 | 0.00 | 100 | 1013.9 |
| 20260905114704 | 78 | 297 | 0.0 | 0.0 | 0.00 | 0.08 | 0.00 | 100 | 1013.9 |
| 20260905114204 | 78 | 317 | 0.0 | 0.0 | 0.00 | 0.08 | 0.00 | 100 | 1013.9 |
| 20260905113704 | 78 | 245 | 0.0 | 0.0 | 0.00 | 0.08 | 0.00 | 100 | 1013.9 |
| 20260905113203 | 78 | 245 | 0.0 | 0.0 | 0.00 | 0.08 | 0.00 | 100 | 1012.9 |
| 20260905111704 | 78 | 245 | 0.0 | 0.0 | 0.00 | 0.08 | 0.00 | 100 | 1012.9 |
| 20260905111204 | 78 | 248 | 0.0 | 0.0 | 0.00 | 0.08 | 0.00 | 100 | 1012.9 |
| 20260905110704 | 78 | 248 | 0.0 | 0.0 | 0.00 | 0.08 | 0.00 | 100 | 1012.9 |
| 20260905110204 | 78 | 248 | 0.0 | 0.0 | 0.00 | 0.08 | 0.00 | 100 | 1013.9 |
| 20260905104704 | 78 | 248 | 0.0 | 0.0 | 0.00 | 0.08 | 0.00 | 100 | 1012.9 |
| 20260905104203 | 78 | 248 | 0.0 | 0.0 | 0.00 | 0.08 | 0.00 | 100 | 1012.9 |
| 20260905103703 | 78 | 248 | 0.0 | 0.0 | 0.00 | 0.08 | 0.00 | 100 | 1012.9 |